Погода в Усолке

Россия / Красноярский край     56°46′47″N   95°19′12″E
темп.,
°C
ветер,
м/с
пор.,
м/с
влажн.,
%
обл.,
%
осадки,
мм/ч
давл.,
гПа
погр.,
м
12 мая, ср
ср1201:00+7в387349 0.0 1019395
04:00+4всв277824 0.0 1019210
07:00+6в36620 0.0 1020420
10:00+10всв34420 0.0 10191197
13:00+12св33320 0.0 10181784
16:00+13св33295 0.0 10172077
19:00+12всв23354 0.0 1017234
22:00+7вюв22501 0.0 101811
13 мая, чт
чт1301:00+5юв12570 0.0 101812
04:00+3ююв11610 0.0 101810
07:00+7юв12490 0.0 1019201
10:00+11юв34320 0.0 10181653
13:00+13вюв34292 0.0 10171916
16:00+14юв33280 0.0 10161905
19:00+13юв25350 0.0 1015373
22:00+7юв22530 0.0 101527
14 мая, пт
пт1401:00+5ююв24565 0.0 101465
04:00+4ююв2258100 0.0 101333
07:00+7ююв354925 0.0 1011178
10:00+14ю343323 0.0 1009863
13:00+17юз4732100 0.0 10072334
16:00+6сз51188100 0.9 1010642
19:00+5сз51087100 1.4 1013728
22:00+3зсз498250 0.1 1016841
15 мая, сб
сб1501:00+2з4118220 0.2 1017586
04:00+1з410889 0.0 1018506
07:00+4з510748 0.0 1019938
10:00+8з6948100 0.0 10171581
13:00+5юз61188100 0.9 1016894
16:00+9зюз51373100 0.4 10131045
19:00+13зюз7156698 0.4 10121095
22:00+12зюз8176898 0.0 1011817
16 мая, вс
вс1601:00+11зюз71873100 0.1 1010707
04:00+10зюз61484100 0.3 1011772
07:00+10з41091100 1.4 1012742
10:00+9с1297100 1.1 1012177
13:00+8всв2395100 1.5 1012158
16:00+10ююз1495100 1.9 1009162
19:00+11юз1198100 7.1 100519
22:00+10сз3699100 3.1 1005305